Location: Risskov
(56.1972°N, 10.2480°E)
Time: 13:20:44
(UTC+00:00)

ALOS 2 - Pass Details

Date: 05 July 2020
Orbit: 630 x 632 km, 97.9° (Epoch: 07 August)

Event Time Altitude Azimuth Distance (km) Brightness Sun altitude
Exits shadow 23:35:35 12° 214° (SSW) 1,915 4.6 -11.1°
Maximum altitude 23:38:56 26° 268° (W) 1,270 4.1 -11.1°
Drops below altitude 10° 23:42:38 10° 324° (NW) 2,028 6.0 -11.0°
Sets 23:45:10 0° 338° (NNW) 2,941 7.3 -11.0°
